HVDC transfer

From www.emi.ea.govt.nz provided by the Electricity Authority (New Zealand)
Run at: 20240430225614

Parameters
Date range,14 Mar 2020 - 05 Jun 2020
Time scale,Trading period
Show,Average flow (MW)

Period start,Period end,Trading period,Direction,Energy transfer (GWh),Peak flow (MW),Average flow (MW)
14/03/2020 00:00:00,14/03/2020 00:30:00,1,Northward at Haywards,0.181,362,362
14/03/2020 00:30:00,14/03/2020 01:00:00,2,Northward at Haywards,0.181,362,362
14/03/2020 01:00:00,14/03/2020 01:30:00,3,Northward at Haywards,0.181,362,362
14/03/2020 01:30:00,14/03/2020 02:00:00,4,Northward at Haywards,0.181,362,362
14/03/2020 02:00:00,14/03/2020 02:30:00,5,Northward at Haywards,0.181,362,362
14/03/2020 02:30:00,14/03/2020 03:00:00,6,Northward at Haywards,0.181,362,362
14/03/2020 03:00:00,14/03/2020 03:30:00,7,Northward at Haywards,0.181,362,362
14/03/2020 03:30:00,14/03/2020 04:00:00,8,Northward at Haywards,0.181,362,362
14/03/2020 04:00:00,14/03/2020 04:30:00,9,Northward at Haywards,0.181,362,362
14/03/2020 04:30:00,14/03/2020 05:00:00,10,Northward at Haywards,0.181,362,362
14/03/2020 05:00:00,14/03/2020 05:30:00,11,Northward at Haywards,0.181,362,362
14/03/2020 05:30:00,14/03/2020 06:00:00,12,Northward at Haywards,0.181,362,362
14/03/2020 06:00:00,14/03/2020 06:30:00,13,Northward at Haywards,0.181,362,362
14/03/2020 06:30:00,14/03/2020 07:00:00,14,Northward at Haywards,0.181,362,362
14/03/2020 07:00:00,14/03/2020 07:30:00,15,Northward at Haywards,0.181,362,362
14/03/2020 07:30:00,14/03/2020 08:00:00,16,Northward at Haywards,0.181,362,362
14/03/2020 08:00:00,14/03/2020 08:30:00,17,Northward at Haywards,0.181,362,362
14/03/2020 08:30:00,14/03/2020 09:00:00,18,Northward at Haywards,0.181,362,362
14/03/2020 09:00:00,14/03/2020 09:30:00,19,Northward at Haywards,0.181,362,362
14/03/2020 09:30:00,14/03/2020 10:00:00,20,Northward at Haywards,0.181,362,362
14/03/2020 10:00:00,14/03/2020 10:30:00,21,Northward at Haywards,0.181,362,362
14/03/2020 10:30:00,14/03/2020 11:00:00,22,Northward at Haywards,0.181,362,362
14/03/2020 11:00:00,14/03/2020 11:30:00,23,Northward at Haywards,0.181,362,362
14/03/2020 11:30:00,14/03/2020 12:00:00,24,Northward at Haywards,0.181,362,362
14/03/2020 12:00:00,14/03/2020 12:30:00,25,Northward at Haywards,0.181,362,362
14/03/2020 12:30:00,14/03/2020 13:00:00,26,Northward at Haywards,0.181,362,362
14/03/2020 13:00:00,14/03/2020 13:30:00,27,Northward at Haywards,0.181,362,362
14/03/2020 13:30:00,14/03/2020 14:00:00,28,Northward at Haywards,0.181,362,362
14/03/2020 14:00:00,14/03/2020 14:30:00,29,Northward at Haywards,0.181,362,362
14/03/2020 14:30:00,14/03/2020 15:00:00,30,Northward at Haywards,0.181,362,362
14/03/2020 15:00:00,14/03/2020 15:30:00,31,Northward at Haywards,0.181,362,362
14/03/2020 15:30:00,14/03/2020 16:00:00,32,Northward at Haywards,0.181,362,362
14/03/2020 16:00:00,14/03/2020 16:30:00,33,Northward at Haywards,0.181,362,362
14/03/2020 16:30:00,14/03/2020 17:00:00,34,Northward at Haywards,0.181,362,362
14/03/2020 17:00:00,14/03/2020 17:30:00,35,Northward at Haywards,0.181,362,362
14/03/2020 17:30:00,14/03/2020 18:00:00,36,Northward at Haywards,0.181,362,362
14/03/2020 18:00:00,14/03/2020 18:30:00,37,Northward at Haywards,0.181,362,362
14/03/2020 18:30:00,14/03/2020 19:00:00,38,Northward at Haywards,0.181,362,362
14/03/2020 19:00:00,14/03/2020 19:30:00,39,Northward at Haywards,0.181,362,362
14/03/2020 19:30:00,14/03/2020 20:00:00,40,Northward at Haywards,0.181,362,362
14/03/2020 20:00:00,14/03/2020 20:30:00,41,Northward at Haywards,0.181,362,362
14/03/2020 20:30:00,14/03/2020 21:00:00,42,Northward at Haywards,0.181,362,362
14/03/2020 21:00:00,14/03/2020 21:30:00,43,Northward at Haywards,0.181,362,362
14/03/2020 21:30:00,14/03/2020 22:00:00,44,Northward at Haywards,0.181,362,362
14/03/2020 22:00:00,14/03/2020 22:30:00,45,Northward at Haywards,0.170,340,340
14/03/2020 22:30:00,14/03/2020 23:00:00,46,Northward at Haywards,0.146,292,292
14/03/2020 23:00:00,14/03/2020 23:30:00,47,Northward at Haywards,0.141,281,281
14/03/2020 23:30:00,15/03/2020 00:00:00,48,Northward at Haywards,0.146,292,292
15/03/2020 00:00:00,15/03/2020 00:30:00,1,Northward at Haywards,0.158,316,316
15/03/2020 00:30:00,15/03/2020 01:00:00,2,Northward at Haywards,0.161,322,322
15/03/2020 01:00:00,15/03/2020 01:30:00,3,Northward at Haywards,0.171,341,341
15/03/2020 01:30:00,15/03/2020 02:00:00,4,Northward at Haywards,0.154,307,307
15/03/2020 02:00:00,15/03/2020 02:30:00,5,Northward at Haywards,0.132,263,263
15/03/2020 02:30:00,15/03/2020 03:00:00,6,Northward at Haywards,0.132,263,263
15/03/2020 03:00:00,15/03/2020 03:30:00,7,Northward at Haywards,0.133,265,265
15/03/2020 03:30:00,15/03/2020 04:00:00,8,Northward at Haywards,0.125,249,249
15/03/2020 04:00:00,15/03/2020 04:30:00,9,Northward at Haywards,0.121,242,242
15/03/2020 04:30:00,15/03/2020 05:00:00,10,Northward at Haywards,0.146,292,292
15/03/2020 05:00:00,15/03/2020 05:30:00,11,Northward at Haywards,0.148,296,296
15/03/2020 05:30:00,15/03/2020 06:00:00,12,Northward at Haywards,0.172,343,343
15/03/2020 06:00:00,15/03/2020 06:30:00,13,Northward at Haywards,0.163,326,326
15/03/2020 06:30:00,15/03/2020 07:00:00,14,Northward at Haywards,0.169,337,337
15/03/2020 07:00:00,15/03/2020 07:30:00,15,Northward at Haywards,0.181,362,362
15/03/2020 07:30:00,15/03/2020 08:00:00,16,Northward at Haywards,0.181,362,362
15/03/2020 08:00:00,15/03/2020 08:30:00,17,Northward at Haywards,0.181,362,362
15/03/2020 08:30:00,15/03/2020 09:00:00,18,Northward at Haywards,0.181,362,362
15/03/2020 09:00:00,15/03/2020 09:30:00,19,Northward at Haywards,0.181,362,362
15/03/2020 09:30:00,15/03/2020 10:00:00,20,Northward at Haywards,0.181,362,362
15/03/2020 10:00:00,15/03/2020 10:30:00,21,Northward at Haywards,0.181,362,362
15/03/2020 10:30:00,15/03/2020 11:00:00,22,Northward at Haywards,0.181,362,362
15/03/2020 11:00:00,15/03/2020 11:30:00,23,Northward at Haywards,0.181,362,362
15/03/2020 11:30:00,15/03/2020 12:00:00,24,Northward at Haywards,0.181,362,362
15/03/2020 12:00:00,15/03/2020 12:30:00,25,Northward at Haywards,0.181,362,362
15/03/2020 12:30:00,15/03/2020 13:00:00,26,Northward at Haywards,0.181,362,362
15/03/2020 13:00:00,15/03/2020 13:30:00,27,Northward at Haywards,0.181,362,362
15/03/2020 13:30:00,15/03/2020 14:00:00,28,Northward at Haywards,0.181,362,362
15/03/2020 14:00:00,15/03/2020 14:30:00,29,Northward at Haywards,0.181,362,362
15/03/2020 14:30:00,15/03/2020 15:00:00,30,Northward at Haywards,0.181,362,362
15/03/2020 15:00:00,15/03/2020 15:30:00,31,Northward at Haywards,0.181,362,362
15/03/2020 15:30:00,15/03/2020 16:00:00,32,Northward at Haywards,0.181,362,362
15/03/2020 16:00:00,15/03/2020 16:30:00,33,Northward at Haywards,0.181,362,362
15/03/2020 16:30:00,15/03/2020 17:00:00,34,Northward at Haywards,0.181,362,362
15/03/2020 17:00:00,15/03/2020 17:30:00,35,Northward at Haywards,0.181,362,362
15/03/2020 17:30:00,15/03/2020 18:00:00,36,Northward at Haywards,0.181,362,362
15/03/2020 18:00:00,15/03/2020 18:30:00,37,Northward at Haywards,0.181,361,361
15/03/2020 18:30:00,15/03/2020 19:00:00,38,Northward at Haywards,0.181,362,362
15/03/2020 19:00:00,15/03/2020 19:30:00,39,Northward at Haywards,0.181,362,362
15/03/2020 19:30:00,15/03/2020 20:00:00,40,Northward at Haywards,0.181,362,362
15/03/2020 20:00:00,15/03/2020 20:30:00,41,Northward at Haywards,0.181,362,362
15/03/2020 20:30:00,15/03/2020 21:00:00,42,Northward at Haywards,0.181,362,362
15/03/2020 21:00:00,15/03/2020 21:30:00,43,Northward at Haywards,0.181,362,362
15/03/2020 21:30:00,15/03/2020 22:00:00,44,Northward at Haywards,0.181,362,362
15/03/2020 22:00:00,15/03/2020 22:30:00,45,Northward at Haywards,0.181,362,362
15/03/2020 22:30:00,15/03/2020 23:00:00,46,Northward at Haywards,0.123,246,246
15/03/2020 23:00:00,15/03/2020 23:30:00,47,Northward at Haywards,0.119,237,237
15/03/2020 23:30:00,16/03/2020 00:00:00,48,Northward at Haywards,0.124,247,247
16/03/2020 00:00:00,16/03/2020 00:30:00,1,Northward at Haywards,0.113,225,225
16/03/2020 00:30:00,16/03/2020 01:00:00,2,Northward at Haywards,0.128,255,255
16/03/2020 01:00:00,16/03/2020 01:30:00,3,Northward at Haywards,0.111,221,221
16/03/2020 01:30:00,16/03/2020 02:00:00,4,Northward at Haywards,0.084,167,167
16/03/2020 02:00:00,16/03/2020 02:30:00,5,Northward at Haywards,0.070,140,140
16/03/2020 02:30:00,16/03/2020 03:00:00,6,Northward at Haywards,0.050,100,100
16/03/2020 03:00:00,16/03/2020 03:30:00,7,Northward at Haywards,0.032,64,64
16/03/2020 03:30:00,16/03/2020 04:00:00,8,Northward at Haywards,0.032,64,64
16/03/2020 04:00:00,16/03/2020 04:30:00,9,Northward at Haywards,0.032,64,64
16/03/2020 04:30:00,16/03/2020 05:00:00,10,Northward at Haywards,0.073,145,145
16/03/2020 05:00:00,16/03/2020 05:30:00,11,Northward at Haywards,0.073,145,145
16/03/2020 05:30:00,16/03/2020 06:00:00,12,Northward at Haywards,0.108,216,216
16/03/2020 06:00:00,16/03/2020 06:30:00,13,Northward at Haywards,0.117,234,234
16/03/2020 06:30:00,16/03/2020 07:00:00,14,Northward at Haywards,0.151,301,301
16/03/2020 07:00:00,16/03/2020 07:30:00,15,Northward at Haywards,0.166,331,331
16/03/2020 07:30:00,16/03/2020 08:00:00,16,Northward at Haywards,0.181,362,362
16/03/2020 08:00:00,16/03/2020 08:30:00,17,Northward at Haywards,0.171,341,341
16/03/2020 08:30:00,16/03/2020 09:00:00,18,Northward at Haywards,0.181,362,362
16/03/2020 09:00:00,16/03/2020 09:30:00,19,Northward at Haywards,0.181,362,362
16/03/2020 09:30:00,16/03/2020 10:00:00,20,Northward at Haywards,0.181,362,362
16/03/2020 10:00:00,16/03/2020 10:30:00,21,Northward at Haywards,0.181,362,362
16/03/2020 10:30:00,16/03/2020 11:00:00,22,Northward at Haywards,0.181,362,362
16/03/2020 11:00:00,16/03/2020 11:30:00,23,Northward at Haywards,0.181,362,362
16/03/2020 11:30:00,16/03/2020 12:00:00,24,Northward at Haywards,0.181,362,362
16/03/2020 12:00:00,16/03/2020 12:30:00,25,Northward at Haywards,0.181,362,362
16/03/2020 12:30:00,16/03/2020 13:00:00,26,Northward at Haywards,0.181,362,362
16/03/2020 13:00:00,16/03/2020 13:30:00,27,Northward at Haywards,0.181,362,362
16/03/2020 13:30:00,16/03/2020 14:00:00,28,Northward at Haywards,0.181,362,362
16/03/2020 14:00:00,16/03/2020 14:30:00,29,Northward at Haywards,0.181,362,362
16/03/2020 14:30:00,16/03/2020 15:00:00,30,Northward at Haywards,0.181,362,362
16/03/2020 15:00:00,16/03/2020 15:30:00,31,Northward at Haywards,0.181,362,362
16/03/2020 15:30:00,16/03/2020 16:00:00,32,Northward at Haywards,0.181,362,362
16/03/2020 16:00:00,16/03/2020 16:30:00,33,Northward at Haywards,0.181,362,362
16/03/2020 16:30:00,16/03/2020 17:00:00,34,Northward at Haywards,0.181,362,362
16/03/2020 17:00:00,16/03/2020 17:30:00,35,Northward at Haywards,0.181,362,362
16/03/2020 17:30:00,16/03/2020 18:00:00,36,Northward at Haywards,0.178,356,356
16/03/2020 18:00:00,16/03/2020 18:30:00,37,Northward at Haywards,0.177,353,353
16/03/2020 18:30:00,16/03/2020 19:00:00,38,Northward at Haywards,0.180,359,359
16/03/2020 19:00:00,16/03/2020 19:30:00,39,Northward at Haywards,0.181,362,362
16/03/2020 19:30:00,16/03/2020 20:00:00,40,Northward at Haywards,0.163,326,326
16/03/2020 20:00:00,16/03/2020 20:30:00,41,Northward at Haywards,0.126,251,251
16/03/2020 20:30:00,16/03/2020 21:00:00,42,Northward at Haywards,0.105,210,210
16/03/2020 21:00:00,16/03/2020 21:30:00,43,Northward at Haywards,0.091,182,182
16/03/2020 21:30:00,16/03/2020 22:00:00,44,Northward at Haywards,0.065,130,130
16/03/2020 22:00:00,16/03/2020 22:30:00,45,Northward at Haywards,0.048,96,96
16/03/2020 22:30:00,16/03/2020 23:00:00,46,Northward at Haywards,0.017,34,34
16/03/2020 23:00:00,16/03/2020 23:30:00,47,Southward at Benmore,-0.029,-58,-58
16/03/2020 23:30:00,17/03/2020 00:00:00,48,Southward at Benmore,-0.033,-67,-67
17/03/2020 00:00:00,17/03/2020 00:30:00,1,Northward at Haywards,0.004,7,7
17/03/2020 00:30:00,17/03/2020 01:00:00,2,Northward at Haywards,0.005,10,10
17/03/2020 01:00:00,17/03/2020 01:30:00,3,Southward at Benmore,-0.019,-39,-39
17/03/2020 01:30:00,17/03/2020 02:00:00,4,Southward at Benmore,-0.028,-57,-57
17/03/2020 02:00:00,17/03/2020 02:30:00,5,Southward at Benmore,-0.045,-91,-91
17/03/2020 02:30:00,17/03/2020 03:00:00,6,Southward at Benmore,-0.041,-83,-83
17/03/2020 03:00:00,17/03/2020 03:30:00,7,Southward at Benmore,-0.049,-98,-98
17/03/2020 03:30:00,17/03/2020 04:00:00,8,Southward at Benmore,-0.049,-99,-99
17/03/2020 04:00:00,17/03/2020 04:30:00,9,Southward at Benmore,-0.042,-84,-84
17/03/2020 04:30:00,17/03/2020 05:00:00,10,Southward at Benmore,-0.028,-56,-56
17/03/2020 05:00:00,17/03/2020 05:30:00,11,Southward at Benmore,-0.022,-44,-44
17/03/2020 06:00:00,17/03/2020 06:30:00,13,Northward at Haywards,0.071,142,142
17/03/2020 06:30:00,17/03/2020 07:00:00,14,Northward at Haywards,0.062,124,124
17/03/2020 07:00:00,17/03/2020 07:30:00,15,Northward at Haywards,0.045,90,90
17/03/2020 07:30:00,17/03/2020 08:00:00,16,Northward at Haywards,0.044,88,88
17/03/2020 08:00:00,17/03/2020 08:30:00,17,Northward at Haywards,0.064,128,128
17/03/2020 08:30:00,17/03/2020 09:00:00,18,Northward at Haywards,0.059,118,118
17/03/2020 09:00:00,17/03/2020 09:30:00,19,Northward at Haywards,0.071,141,141
17/03/2020 09:30:00,17/03/2020 10:00:00,20,Northward at Haywards,0.069,138,138
17/03/2020 10:00:00,17/03/2020 10:30:00,21,Northward at Haywards,0.084,167,167
17/03/2020 10:30:00,17/03/2020 11:00:00,22,Northward at Haywards,0.096,191,191
17/03/2020 11:00:00,17/03/2020 11:30:00,23,Northward at Haywards,0.078,155,155
17/03/2020 11:30:00,17/03/2020 12:00:00,24,Northward at Haywards,0.091,181,181
17/03/2020 12:00:00,17/03/2020 12:30:00,25,Northward at Haywards,0.104,208,208
17/03/2020 12:30:00,17/03/2020 13:00:00,26,Northward at Haywards,0.085,169,169
17/03/2020 13:00:00,17/03/2020 13:30:00,27,Northward at Haywards,0.087,174,174
17/03/2020 13:30:00,17/03/2020 14:00:00,28,Northward at Haywards,0.087,173,173
17/03/2020 14:00:00,17/03/2020 14:30:00,29,Northward at Haywards,0.087,173,173
17/03/2020 14:30:00,17/03/2020 15:00:00,30,Northward at Haywards,0.089,178,178
17/03/2020 15:00:00,17/03/2020 15:30:00,31,Northward at Haywards,0.090,180,180
17/03/2020 15:30:00,17/03/2020 16:00:00,32,Northward at Haywards,0.107,213,213
17/03/2020 16:00:00,17/03/2020 16:30:00,33,Northward at Haywards,0.116,232,232
17/03/2020 16:30:00,17/03/2020 17:00:00,34,Northward at Haywards,0.116,232,232
17/03/2020 17:00:00,17/03/2020 17:30:00,35,Northward at Haywards,0.127,254,254
17/03/2020 17:30:00,17/03/2020 18:00:00,36,Northward at Haywards,0.137,273,273
17/03/2020 18:00:00,17/03/2020 18:30:00,37,Northward at Haywards,0.122,243,243
17/03/2020 18:30:00,17/03/2020 19:00:00,38,Northward at Haywards,0.141,282,282
17/03/2020 19:00:00,17/03/2020 19:30:00,39,Northward at Haywards,0.140,280,280
17/03/2020 19:30:00,17/03/2020 20:00:00,40,Northward at Haywards,0.144,287,287
17/03/2020 20:00:00,17/03/2020 20:30:00,41,Northward at Haywards,0.133,266,266
17/03/2020 20:30:00,17/03/2020 21:00:00,42,Northward at Haywards,0.125,250,250
17/03/2020 21:00:00,17/03/2020 21:30:00,43,Northward at Haywards,0.127,254,254
17/03/2020 21:30:00,17/03/2020 22:00:00,44,Northward at Haywards,0.140,279,279
17/03/2020 22:00:00,17/03/2020 22:30:00,45,Northward at Haywards,0.126,252,252
17/03/2020 22:30:00,17/03/2020 23:00:00,46,Northward at Haywards,0.089,178,178
17/03/2020 23:00:00,17/03/2020 23:30:00,47,Northward at Haywards,0.069,137,137
17/03/2020 23:30:00,18/03/2020 00:00:00,48,Northward at Haywards,0.081,162,162
18/03/2020 00:00:00,18/03/2020 00:30:00,1,Northward at Haywards,0.058,115,115
18/03/2020 00:30:00,18/03/2020 01:00:00,2,Northward at Haywards,0.074,147,147
18/03/2020 01:00:00,18/03/2020 01:30:00,3,Northward at Haywards,0.065,130,130
18/03/2020 01:30:00,18/03/2020 02:00:00,4,Northward at Haywards,0.065,130,130
18/03/2020 02:00:00,18/03/2020 02:30:00,5,Northward at Haywards,0.049,98,98
18/03/2020 02:30:00,18/03/2020 03:00:00,6,Northward at Haywards,0.049,97,97
18/03/2020 03:00:00,18/03/2020 03:30:00,7,Northward at Haywards,0.050,100,100
18/03/2020 03:30:00,18/03/2020 04:00:00,8,Northward at Haywards,0.051,101,101
18/03/2020 04:00:00,18/03/2020 04:30:00,9,Northward at Haywards,0.070,140,140
18/03/2020 04:30:00,18/03/2020 05:00:00,10,Northward at Haywards,0.079,158,158
18/03/2020 05:00:00,18/03/2020 05:30:00,11,Northward at Haywards,0.094,187,187
18/03/2020 05:30:00,18/03/2020 06:00:00,12,Northward at Haywards,0.150,299,299
18/03/2020 06:00:00,18/03/2020 06:30:00,13,Northward at Haywards,0.122,243,243
18/03/2020 06:30:00,18/03/2020 07:00:00,14,Northward at Haywards,0.123,246,246
18/03/2020 07:00:00,18/03/2020 07:30:00,15,Northward at Haywards,0.094,187,187
18/03/2020 07:30:00,18/03/2020 08:00:00,16,Northward at Haywards,0.126,251,251
18/03/2020 08:00:00,18/03/2020 08:30:00,17,Northward at Haywards,0.145,290,290
18/03/2020 08:30:00,18/03/2020 09:00:00,18,Northward at Haywards,0.129,257,257
18/03/2020 09:00:00,18/03/2020 09:30:00,19,Northward at Haywards,0.127,253,253
18/03/2020 09:30:00,18/03/2020 10:00:00,20,Northward at Haywards,0.119,237,237
18/03/2020 10:00:00,18/03/2020 10:30:00,21,Northward at Haywards,0.121,241,241
18/03/2020 10:30:00,18/03/2020 11:00:00,22,Northward at Haywards,0.145,289,289
18/03/2020 11:00:00,18/03/2020 11:30:00,23,Northward at Haywards,0.118,235,235
18/03/2020 11:30:00,18/03/2020 12:00:00,24,Northward at Haywards,0.120,239,239
18/03/2020 12:00:00,18/03/2020 12:30:00,25,Northward at Haywards,0.133,266,266
18/03/2020 12:30:00,18/03/2020 13:00:00,26,Northward at Haywards,0.170,339,339
18/03/2020 13:00:00,18/03/2020 13:30:00,27,Northward at Haywards,0.177,353,353
18/03/2020 13:30:00,18/03/2020 14:00:00,28,Northward at Haywards,0.170,339,339
18/03/2020 14:00:00,18/03/2020 14:30:00,29,Northward at Haywards,0.180,359,359
18/03/2020 14:30:00,18/03/2020 15:00:00,30,Northward at Haywards,0.181,362,362
18/03/2020 15:00:00,18/03/2020 15:30:00,31,Northward at Haywards,0.181,362,362
18/03/2020 15:30:00,18/03/2020 16:00:00,32,Northward at Haywards,0.181,362,362
18/03/2020 16:00:00,18/03/2020 16:30:00,33,Northward at Haywards,0.181,362,362
18/03/2020 16:30:00,18/03/2020 17:00:00,34,Northward at Haywards,0.171,341,341
18/03/2020 17:00:00,18/03/2020 17:30:00,35,Northward at Haywards,0.171,341,341
18/03/2020 17:30:00,18/03/2020 18:00:00,36,Northward at Haywards,0.155,309,309
18/03/2020 18:00:00,18/03/2020 18:30:00,37,Northward at Haywards,0.136,272,272
18/03/2020 18:30:00,18/03/2020 19:00:00,38,Northward at Haywards,0.150,300,300
18/03/2020 19:00:00,18/03/2020 19:30:00,39,Northward at Haywards,0.149,297,297
18/03/2020 19:30:00,18/03/2020 20:00:00,40,Northward at Haywards,0.169,337,337
18/03/2020 20:00:00,18/03/2020 20:30:00,41,Northward at Haywards,0.127,253,253
18/03/2020 20:30:00,18/03/2020 21:00:00,42,Northward at Haywards,0.123,245,245
18/03/2020 21:00:00,18/03/2020 21:30:00,43,Northward at Haywards,0.116,231,231
18/03/2020 21:30:00,18/03/2020 22:00:00,44,Northward at Haywards,0.092,184,184
18/03/2020 22:00:00,18/03/2020 22:30:00,45,Northward at Haywards,0.080,160,160
18/03/2020 22:30:00,18/03/2020 23:00:00,46,Northward at Haywards,0.079,157,157
18/03/2020 23:00:00,18/03/2020 23:30:00,47,Northward at Haywards,0.058,115,115
18/03/2020 23:30:00,19/03/2020 00:00:00,48,Northward at Haywards,0.060,120,120
19/03/2020 00:00:00,19/03/2020 00:30:00,1,Northward at Haywards,0.081,161,161
19/03/2020 00:30:00,19/03/2020 01:00:00,2,Northward at Haywards,0.043,85,85
19/03/2020 01:00:00,19/03/2020 01:30:00,3,Northward at Haywards,0.042,84,84
19/03/2020 01:30:00,19/03/2020 02:00:00,4,Northward at Haywards,0.017,34,34
19/03/2020 02:00:00,19/03/2020 02:30:00,5,Southward at Benmore,-0.016,-33,-33
19/03/2020 02:30:00,19/03/2020 03:00:00,6,Southward at Benmore,-0.027,-54,-54
19/03/2020 03:00:00,19/03/2020 03:30:00,7,Southward at Benmore,-0.047,-94,-94
19/03/2020 03:30:00,19/03/2020 04:00:00,8,Southward at Benmore,-0.036,-72,-72
19/03/2020 04:00:00,19/03/2020 04:30:00,9,Southward at Benmore,-0.034,-69,-69
19/03/2020 04:30:00,19/03/2020 05:00:00,10,Southward at Benmore,-0.026,-53,-53
19/03/2020 05:00:00,19/03/2020 05:30:00,11,Northward at Haywards,0.025,49,49
19/03/2020 05:30:00,19/03/2020 06:00:00,12,Northward at Haywards,0.079,157,157
19/03/2020 06:00:00,19/03/2020 06:30:00,13,Northward at Haywards,0.106,212,212
19/03/2020 06:30:00,19/03/2020 07:00:00,14,Northward at Haywards,0.130,260,260
19/03/2020 07:00:00,19/03/2020 07:30:00,15,Northward at Haywards,0.125,250,250
19/03/2020 07:30:00,19/03/2020 08:00:00,16,Northward at Haywards,0.131,261,261
19/03/2020 08:00:00,19/03/2020 08:30:00,17,Northward at Haywards,0.131,262,262
19/03/2020 08:30:00,19/03/2020 09:00:00,18,Northward at Haywards,0.147,293,293
19/03/2020 09:00:00,19/03/2020 09:30:00,19,Northward at Haywards,0.142,284,284
19/03/2020 09:30:00,19/03/2020 10:00:00,20,Northward at Haywards,0.128,256,256
19/03/2020 10:00:00,19/03/2020 10:30:00,21,Northward at Haywards,0.136,272,272
19/03/2020 10:30:00,19/03/2020 11:00:00,22,Northward at Haywards,0.145,289,289
19/03/2020 11:00:00,19/03/2020 11:30:00,23,Northward at Haywards,0.144,287,287
19/03/2020 11:30:00,19/03/2020 12:00:00,24,Northward at Haywards,0.120,239,239
19/03/2020 12:00:00,19/03/2020 12:30:00,25,Northward at Haywards,0.120,239,239
19/03/2020 12:30:00,19/03/2020 13:00:00,26,Northward at Haywards,0.126,252,252
19/03/2020 13:00:00,19/03/2020 13:30:00,27,Northward at Haywards,0.124,247,247
19/03/2020 13:30:00,19/03/2020 14:00:00,28,Northward at Haywards,0.116,231,231
19/03/2020 14:00:00,19/03/2020 14:30:00,29,Northward at Haywards,0.103,206,206
19/03/2020 14:30:00,19/03/2020 15:00:00,30,Northward at Haywards,0.107,214,214
19/03/2020 15:00:00,19/03/2020 15:30:00,31,Northward at Haywards,0.118,235,235
19/03/2020 15:30:00,19/03/2020 16:00:00,32,Northward at Haywards,0.120,240,240
19/03/2020 16:00:00,19/03/2020 16:30:00,33,Northward at Haywards,0.128,255,255
19/03/2020 16:30:00,19/03/2020 17:00:00,34,Northward at Haywards,0.123,246,246
19/03/2020 17:00:00,19/03/2020 17:30:00,35,Northward at Haywards,0.126,251,251
19/03/2020 17:30:00,19/03/2020 18:00:00,36,Northward at Haywards,0.148,295,295
19/03/2020 18:00:00,19/03/2020 18:30:00,37,Northward at Haywards,0.142,283,283
19/03/2020 18:30:00,19/03/2020 19:00:00,38,Northward at Haywards,0.146,292,292
19/03/2020 19:00:00,19/03/2020 19:30:00,39,Northward at Haywards,0.145,290,290
19/03/2020 19:30:00,19/03/2020 20:00:00,40,Northward at Haywards,0.140,280,280
19/03/2020 20:00:00,19/03/2020 20:30:00,41,Northward at Haywards,0.119,238,238
19/03/2020 20:30:00,19/03/2020 21:00:00,42,Northward at Haywards,0.097,194,194
19/03/2020 21:00:00,19/03/2020 21:30:00,43,Northward at Haywards,0.075,149,149
19/03/2020 21:30:00,19/03/2020 22:00:00,44,Northward at Haywards,0.052,103,103
19/03/2020 22:00:00,19/03/2020 22:30:00,45,Northward at Haywards,0.024,48,48
19/03/2020 22:30:00,19/03/2020 23:00:00,46,Northward at Haywards,0.045,90,90
19/03/2020 23:00:00,19/03/2020 23:30:00,47,Northward at Haywards,0.032,63,63
19/03/2020 23:30:00,20/03/2020 00:00:00,48,Northward at Haywards,0.044,88,88
20/03/2020 00:00:00,20/03/2020 00:30:00,1,Northward at Haywards,0.040,79,79
20/03/2020 00:30:00,20/03/2020 01:00:00,2,Southward at Benmore,0.000,-1,-1
20/03/2020 01:00:00,20/03/2020 01:30:00,3,Southward at Benmore,0.000,0,0
20/03/2020 01:30:00,20/03/2020 02:00:00,4,Northward at Haywards,0.005,9,9
20/03/2020 02:00:00,20/03/2020 02:30:00,5,Southward at Benmore,-0.003,-6,-6
20/03/2020 02:30:00,20/03/2020 03:00:00,6,Southward at Benmore,0.000,0,0
20/03/2020 03:00:00,20/03/2020 03:30:00,7,Southward at Benmore,-0.002,-5,-5
20/03/2020 03:30:00,20/03/2020 04:00:00,8,Northward at Haywards,0.001,1,1
20/03/2020 04:30:00,20/03/2020 05:00:00,10,Northward at Haywards,0.021,42,42
20/03/2020 05:00:00,20/03/2020 05:30:00,11,Northward at Haywards,0.064,127,127